Weather History for KPTB - May, 2013

Change the Weather History Date:

Monday, May 13, 2013

  Actual Average (KRIC) Record (KRIC)
Temperature  
Mean Temperature 50 °F 66 °F  
Max Temperature 64 °F 77 °F 94 °F (1956)
Min Temperature 37 °F 54 °F 36 °F (1969)
Degree Days  
Heating Degree Days 14 3  
Month to date heating degree days 45  
Since 1 July heating degree days 3737  
Cooling Degree Days 0 3  
Month to date cooling degree days 31  
Year to date cooling degree days 73  
Moisture  
Dew Point 33 °F    
Average Humidity 56    
Maximum Humidity 100    
Minimum Humidity 21    
Precipitation  
Precipitation 0.00 in 0.12 in 1.49 in (1918)
Month to date precipitation 1.47  
Year to date precipitation 14.58  
Snow  
Snow 0.00 in 0.00 in 0.00 in (2002)
Month to date snowfall 0.0  
Since 1 July snowfall 10.3  
Snow Depth -    
Sea Level Pressure  
Sea Level Pressure 30.10 in    
Wind  
Wind Speed 2 mph (NW)    
Max Wind Speed 12 mph    
Max Gust Speed 17 mph    
Visibility 10 miles    
Events Rain    
T = Trace of Precipitation, MM = Missing Value Source: NWS Daily Summary

Daily Weather History Graph

Daily Weather History Graph

Search for Another Location

Airport or City:

Trip Planner

Search our weather history database for the weather conditions in past years. The results will help you decide how hot, cold, wet, or windy it might be!

Date:

Astronomy

May. 13, 2013 Rise Set
Actual Time 6:03 AM EDT 8:10 PM EDT
Civil Twilight 5:34 AM EDT 8:39 PM EDT
Nautical Twilight 4:58 AM EDT 9:14 PM EDT
Astronomical Twilight 4:20 AM EDT 9:53 PM EDT
Moon 8:47 AM EDT (5/13) 11:17 PM EDT (5/13)
Length of Visible Light 15h 05m
Length of Day
14h 07m
Waxing Crescent, 12% of the Moon is Illuminated
May 13
Waxing Crescent
May 18
First Quarter
May 25
Full
May 31
Last Quarter
Jun 8
New

Hourly Weather History & Observations

Time (EDT) Temp. Dew Point Humidity Pressure Visibility Wind Dir Wind Speed Gust Speed Precip Events Conditions
12:15 AM 46.4 °F 41.0 °F 81% 30.05 in 10.0 mi Calm Calm - N/A   Clear
12:35 AM 44.6 °F 41.0 °F 87% 30.06 in 10.0 mi Calm Calm - N/A Rain Light Rain
12:55 AM 44.6 °F 41.0 °F 87% 30.06 in 10.0 mi Calm Calm - N/A   Light Drizzle
1:15 AM 44.6 °F 41.0 °F 87% 30.06 in 10.0 mi Calm Calm - N/A Rain Light Rain
1:35 AM 42.8 °F 39.2 °F 87% 30.06 in 10.0 mi Calm Calm - N/A   Clear
1:55 AM 42.8 °F 39.2 °F 87% 30.06 in 10.0 mi Calm Calm - N/A   Clear
2:15 AM 42.8 °F 39.2 °F 87% 30.06 in 10.0 mi Calm Calm - N/A Rain Light Rain
2:35 AM 42.8 °F 39.2 °F 87% 30.06 in 10.0 mi Calm Calm - N/A   Clear
2:55 AM 41.0 °F 39.2 °F 93% 30.06 in 10.0 mi Calm Calm - N/A Rain Light Rain
3:15 AM 41.0 °F 39.2 °F 93% 30.07 in 10.0 mi Calm Calm - N/A Rain Light Rain
3:35 AM 39.2 °F 37.4 °F 93% 30.07 in 10.0 mi Calm Calm - N/A Rain Light Rain
3:55 AM 39.2 °F 37.4 °F 93% 30.07 in 10.0 mi Calm Calm - N/A Rain Light Rain
4:15 AM 39.2 °F 37.4 °F 93% 30.08 in 10.0 mi Calm Calm - N/A Rain Light Rain
4:35 AM 37.4 °F 37.4 °F 100% 30.08 in 5.0 mi Calm Calm - N/A Rain Light Rain
4:55 AM 37.4 °F 37.4 °F 100% 30.08 in 4.0 mi Calm Calm - N/A   Clear
5:15 AM 37.4 °F 37.4 °F 100% 30.09 in 4.0 mi Calm Calm - N/A Rain Light Rain
5:35 AM 39.2 °F 37.4 °F 93% 30.09 in 10.0 mi Calm Calm - N/A Rain Light Rain
5:55 AM 37.4 °F 35.6 °F 93% 30.09 in 7.0 mi Calm Calm - N/A   Light Drizzle
6:15 AM 37.4 °F 35.6 °F 93% 30.10 in 7.0 mi Calm Calm - N/A   Clear
6:35 AM 39.2 °F 37.4 °F 93% 30.11 in 10.0 mi Calm Calm - N/A   Clear
6:55 AM 41.0 °F 39.2 °F 93% 30.11 in 10.0 mi Calm Calm - N/A   Clear
7:15 AM 44.6 °F 41.0 °F 87% 30.12 in 10.0 mi Calm Calm - N/A   Clear
7:35 AM 46.4 °F 42.8 °F 87% 30.12 in 10.0 mi Calm Calm - N/A   Clear
7:55 AM 51.8 °F 44.6 °F 76% 30.13 in 10.0 mi Calm Calm - N/A   Clear
8:15 AM 53.6 °F 39.2 °F 58% 30.14 in 10.0 mi Calm Calm - N/A   Clear
8:35 AM 55.4 °F 39.2 °F 54% 30.14 in 10.0 mi Calm Calm - N/A   Scattered Clouds
8:55 AM 57.2 °F 32.0 °F 38% 30.14 in 10.0 mi Calm Calm - N/A   Scattered Clouds
9:15 AM 57.2 °F 30.2 °F 36% 30.14 in 10.0 mi Calm Calm - N/A   Scattered Clouds
9:35 AM 59.0 °F 30.2 °F 34% 30.14 in 10.0 mi North 3.5 mph - N/A   Scattered Clouds
9:55 AM 59.0 °F 30.2 °F 34% 30.14 in 10.0 mi Calm Calm - N/A   Clear
10:15 AM 60.8 °F 26.6 °F 27% 30.14 in 10.0 mi Calm Calm - N/A   Clear
10:35 AM 60.8 °F 26.6 °F 27% 30.13 in 10.0 mi NNW 4.6 mph - N/A   Clear
10:55 AM 60.8 °F 26.6 °F 27% 30.13 in 10.0 mi West 4.6 mph - N/A   Scattered Clouds
11:15 AM 62.6 °F 26.6 °F 26% 30.13 in 10.0 mi North 6.9 mph - N/A   Scattered Clouds
11:35 AM 62.6 °F 26.6 °F 26% 30.13 in 10.0 mi West 5.8 mph - N/A   Scattered Clouds
11:55 AM 62.6 °F 26.6 °F 26% 30.13 in 10.0 mi WNW 5.8 mph - N/A   Mostly Cloudy
12:15 PM 64.4 °F 28.4 °F 26% 30.12 in 10.0 mi West 8.1 mph - N/A   Scattered Clouds
12:35 PM 64.4 °F 26.6 °F 24% 30.11 in 10.0 mi West 3.5 mph - N/A   Scattered Clouds
12:55 PM 62.6 °F 26.6 °F 26% 30.11 in 10.0 mi WNW 10.4 mph 16.1 mph N/A   Scattered Clouds
1:15 PM 62.6 °F 23.0 °F 22% 30.10 in 10.0 mi WNW 8.1 mph - N/A   Scattered Clouds
1:35 PM 64.4 °F 23.0 °F 21% 30.09 in 10.0 mi NNW 6.9 mph 16.1 mph N/A   Scattered Clouds
1:55 PM 64.4 °F 24.8 °F 22% 30.09 in 10.0 mi NW 5.8 mph - N/A   Mostly Cloudy
2:15 PM 62.6 °F 24.8 °F 24% 30.08 in 10.0 mi West 10.4 mph - N/A   Mostly Cloudy
2:35 PM 64.4 °F 28.4 °F 26% 30.08 in 10.0 mi West 8.1 mph - N/A   Mostly Cloudy
2:55 PM 62.6 °F 26.6 °F 26% 30.08 in 10.0 mi WNW 6.9 mph - N/A   Mostly Cloudy
3:15 PM 62.6 °F 26.6 °F 26% 30.07 in 10.0 mi WNW 4.6 mph - N/A   Scattered Clouds
3:35 PM 64.4 °F 24.8 °F 22% 30.06 in 10.0 mi NW 8.1 mph - N/A   Scattered Clouds
4:35 PM 64.4 °F 26.6 °F 24% 30.05 in 10.0 mi NW 10.4 mph - N/A   Mostly Cloudy
4:55 PM 62.6 °F 26.6 °F 26% 30.05 in 10.0 mi NW 6.9 mph - N/A   Mostly Cloudy
5:15 PM 62.6 °F 26.6 °F 26% 30.05 in 10.0 mi NW 9.2 mph - N/A   Scattered Clouds
5:35 PM 62.6 °F 26.6 °F 26% 30.05 in 10.0 mi WNW 8.1 mph - N/A   Scattered Clouds
5:55 PM 62.6 °F 28.4 °F 27% 30.05 in 10.0 mi WNW 4.6 mph - N/A   Scattered Clouds
6:15 PM 62.6 °F 28.4 °F 27% 30.05 in 10.0 mi WNW 8.1 mph - N/A   Scattered Clouds
6:35 PM 62.6 °F 26.6 °F 26% 30.05 in 10.0 mi NNW 11.5 mph 17.3 mph N/A   Mostly Cloudy
6:55 PM 60.8 °F 26.6 °F 27% 30.06 in 10.0 mi WNW 6.9 mph - N/A   Mostly Cloudy
7:35 PM 59.0 °F 28.4 °F 31% 30.08 in 10.0 mi NW 6.9 mph - N/A   Mostly Cloudy
8:35 PM 51.8 °F 42.8 °F 71% 30.10 in 10.0 mi Calm Calm - N/A   Light Drizzle
9:15 PM 55.4 °F 30.2 °F 38% 30.12 in 10.0 mi NNW 3.5 mph - N/A   Scattered Clouds
9:35 PM 55.4 °F 28.4 °F 36% 30.13 in 10.0 mi NNW 3.5 mph - N/A   Mostly Cloudy
9:55 PM 55.4 °F 30.2 °F 38% 30.14 in 10.0 mi North 3.5 mph - N/A   Overcast
10:15 PM 53.6 °F 33.8 °F 47% 30.15 in 10.0 mi Calm Calm - N/A   Mostly Cloudy
10:35 PM 48.2 °F 39.2 °F 71% 30.16 in 10.0 mi Calm Calm - N/A   Overcast
10:55 PM 48.2 °F 39.2 °F 71% 30.16 in 10.0 mi Calm Calm - N/A Rain Light Rain
11:15 PM 48.2 °F 35.6 °F 62% 30.17 in 10.0 mi NNW 4.6 mph - N/A   Mostly Cloudy
11:35 PM 46.4 °F 39.2 °F 76% 30.18 in 10.0 mi Calm Calm - N/A Rain Light Rain
11:55 PM 46.4 °F 39.2 °F 76% 30.18 in 10.0 mi Calm Calm - N/A Rain Light Rain